• In India
  • List of Countries
  • For 7 days
  • Water Temperature
  • Satellite Maps
  • Weather Map
  • Weather Widgets
  • user-avatar
    Login

    Hourly Weather Innsbruck

    Today, 18 January, Thursday

    Time Temperature Precipitation Wind Pressure Humidity
    00:00 -13°C° 0.5 mm 3 mps 588 mmHg 94%
    01:00 -13°C° 0 mm 3 mps 588 mmHg 94%
    02:00 -12°C° 0.5 mm 2 mps 588 mmHg 94%
    03:00 -12°C° 0.5 mm 2 mps 588 mmHg 93%
    04:00 -12°C° 0.5 mm 2 mps 588 mmHg 92%
    05:00 -12°C° 0.3 mm 2 mps 588 mmHg 91%
    06:00 -12°C° 0.3 mm 2 mps 587 mmHg 89%
    07:00 -13°C° 0 mm 3 mps 587 mmHg 86%
    08:00 -12°C° 0.4 mm 3 mps 587 mmHg 86%
    09:00 -10°C° 0.4 mm 3 mps 587 mmHg 87%
    10:00 -10°C° 0.4 mm 4 mps 587 mmHg 87%
    11:00 -8°C° 0.2 mm 3 mps 588 mmHg 87%
    12:00 -6°C° 0.2 mm 3 mps 588 mmHg 86%
    13:00 -5°C° 0.2 mm 3 mps 588 mmHg 86%
    14:00 -5°C° 0.1 mm 3 mps 587 mmHg 87%
    15:00 -5°C° 0.1 mm 3 mps 587 mmHg 87%
    16:00 -5°C° 0.1 mm 3 mps 587 mmHg 88%
    17:00 -5°C° 0.1 mm 3 mps 587 mmHg 87%
    18:00 -5°C° 0.1 mm 3 mps 587 mmHg 87%
    19:00 -6°C° 0.1 mm 3 mps 586 mmHg 86%
    20:00 -6°C° 0.4 mm 3 mps 587 mmHg 87%
    21:00 -5°C° 0.4 mm 2 mps 587 mmHg 88%
    22:00 -5°C° 0.4 mm 2 mps 587 mmHg 89%
    23:00 -5°C° 0.7 mm 2 mps 587 mmHg 90%

    Tomorrow, 19 January, Friday

    Time Temperature Precipitation Wind Pressure Humidity
    00:00 -5°C° 0.7 mm 2 mps 587 mmHg 91%
    01:00 -5°C° 0.7 mm 2 mps 587 mmHg 91%
    02:00 -5°C° 0.9 mm 2 mps 586 mmHg 91%
    03:00 -5°C° 0.9 mm 2 mps 586 mmHg 92%
    04:00 -5°C° 0.9 mm 2 mps 586 mmHg 92%
    05:00 -5°C° 1.4 mm 2 mps 586 mmHg 93%
    06:00 -5°C° 1.4 mm 2 mps 586 mmHg 94%
    07:00 -6°C° 1.4 mm 2 mps 586 mmHg 95%
    08:00 -6°C° 1.2 mm 2 mps 587 mmHg 95%
    09:00 -6°C° 1.2 mm 2 mps 587 mmHg 95%
    10:00 -6°C° 1.2 mm 2 mps 587 mmHg 95%
    11:00 -6°C° 1 mm 2 mps 587 mmHg 94%
    12:00 -6°C° 1 mm 2 mps 587 mmHg 94%
    13:00 -6°C° 1 mm 2 mps 587 mmHg 94%
    14:00 -7°C° 0.5 mm 2 mps 587 mmHg 93%
    15:00 -7°C° 0.5 mm 2 mps 587 mmHg 93%
    16:00 -8°C° 0.5 mm 2 mps 587 mmHg 93%
    17:00 -9°C° 0.2 mm 2 mps 587 mmHg 93%
    18:00 -10°C° 0.2 mm 2 mps 587 mmHg 93%
    19:00 -12°C° 0.2 mm 2 mps 588 mmHg 94%
    20:00 -12°C° 0.1 mm 2 mps 588 mmHg 93%
    21:00 -13°C° 0.1 mm 2 mps 588 mmHg 93%
    22:00 -13°C° 0.1 mm 2 mps 588 mmHg 92%
    23:00 -13°C° 0.1 mm 2 mps 588 mmHg 91%

    Day after tomorrow, 20 January, Saturday

    Time Temperature Precipitation Wind Pressure Humidity
    00:00 -11°C° 0.1 mm 1 mps 588 mmHg 90%
    01:00 -12°C° 0.1 mm 1 mps 588 mmHg 90%
    02:00 -14°C° 0.2 mm 2 mps 588 mmHg 89%
    03:00 -14°C° 0.2 mm 2 mps 588 mmHg 88%
    04:00 -14°C° 0.2 mm 2 mps 587 mmHg 87%
    05:00 -14°C° 0.1 mm 2 mps 587 mmHg 87%
    06:00 -13°C° 0.1 mm 2 mps 587 mmHg 87%
    07:00 -13°C° 0.1 mm 2 mps 587 mmHg 87%
    08:00 -13°C° 0.1 mm 2 mps 587 mmHg 87%
    09:00 -12°C° 0.1 mm 2 mps 588 mmHg 86%
    10:00 -10°C° 0.1 mm 2 mps 588 mmHg 86%
    11:00 -9°C° 0 mm 2 mps 588 mmHg 83%
    12:00 -8°C° 0 mm 2 mps 587 mmHg 81%
    13:00 -8°C° 0 mm 3 mps 587 mmHg 79%
    14:00 -7°C° 0.1 mm 2 mps 586 mmHg 82%
    15:00 -8°C° 0.1 mm 2 mps 585 mmHg 85%
    16:00 -8°C° 0.1 mm 2 mps 585 mmHg 88%
    17:00 -9°C° 0.7 mm 2 mps 584 mmHg 90%
    18:00 -9°C° 0.7 mm 2 mps 583 mmHg 92%
    19:00 -10°C° 0.7 mm 2 mps 583 mmHg 94%
    20:00 -10°C° 1.3 mm 2 mps 583 mmHg 95%
    21:00 -10°C° 1.3 mm 2 mps 583 mmHg 95%
    22:00 -10°C° 1.3 mm 2 mps 584 mmHg 96%
    23:00 -10°C° 1.4 mm 2 mps 584 mmHg 96%

    21 January, Sunday

    Time Temperature Precipitation Wind Pressure Humidity
    00:00 -12°C° 1.4 mm 3 mps 585 mmHg 96%
    01:00 -12°C° 1.4 mm 4 mps 586 mmHg 97%
    02:00 -13°C° 0.6 mm 3 mps 586 mmHg 96%
    03:00 -13°C° 0.6 mm 3 mps 586 mmHg 96%
    04:00 -14°C° 0.6 mm 3 mps 587 mmHg 95%
    05:00 -14°C° 0.5 mm 3 mps 587 mmHg 95%
    06:00 -15°C° 0.5 mm 3 mps 588 mmHg 95%
    07:00 -15°C° 0.5 mm 3 mps 588 mmHg 95%
    08:00 -15°C° 0.2 mm 3 mps 589 mmHg 93%
    09:00 -14°C° 0.2 mm 3 mps 589 mmHg 92%
    10:00 -13°C° 0.2 mm 2 mps 590 mmHg 90%
    11:00 -12°C° 0 mm 2 mps 590 mmHg 86%
    12:00 -12°C° 0 mm 2 mps 591 mmHg 82%
    13:00 -10°C° 0 mm 2 mps 591 mmHg 78%
    14:00 -10°C° 0.1 mm 2 mps 591 mmHg 81%
    15:00 -10°C° 0.1 mm 2 mps 591 mmHg 84%
    16:00 -9°C° 0.1 mm 1 mps 591 mmHg 87%
    17:00 -9°C° 0.4 mm 1 mps 591 mmHg 89%
    18:00 -10°C° 0.4 mm 1 mps 591 mmHg 90%
    19:00 -10°C° 0.4 mm 1 mps 591 mmHg 91%
    20:00 -9°C° 0.8 mm 1 mps 591 mmHg 92%
    21:00 -8°C° 0.8 mm 1 mps 592 mmHg 93%
    22:00 -7°C° 0.8 mm 1 mps 592 mmHg 94%
    23:00 -8°C° 1.8 mm 2 mps 592 mmHg 95%

    22 January, Monday

    Time Temperature Precipitation Wind Pressure Humidity
    00:00 -7°C° 1.8 mm 2 mps 592 mmHg 95%
    01:00 -6°C° 1.8 mm 2 mps 592 mmHg 96%
    02:00 -6°C° 3.4 mm 2 mps 592 mmHg 96%
    03:00 -5°C° 3.4 mm 2 mps 592 mmHg 96%
    04:00 -5°C° 3.4 mm 2 mps 592 mmHg 97%
    05:00 -5°C° 3.2 mm 2 mps 592 mmHg 97%
    06:00 -4°C° 3.2 mm 2 mps 593 mmHg 97%
    07:00 -4°C° 3.2 mm 2 mps 593 mmHg 97%
    08:00 -4°C° 2.8 mm 2 mps 593 mmHg 97%
    09:00 -3°C° 2.8 mm 2 mps 594 mmHg 97%
    10:00 -3°C° 2.8 mm 2 mps 594 mmHg 97%
    11:00 -3°C° 2 mm 2 mps 595 mmHg 97%
    12:00 -2°C° 2 mm 2 mps 595 mmHg 98%
    13:00 -2°C° 2 mm 2 mps 595 mmHg 98%
    14:00 -2°C° 0.6 mm 2 mps 595 mmHg 97%
    15:00 -2°C° 0.6 mm 2 mps 595 mmHg 97%
    16:00 -2°C° 0.6 mm 2 mps 596 mmHg 96%
    17:00 -2°C° 0.8 mm 2 mps 596 mmHg 96%
    18:00 -3°C° 0.8 mm 2 mps 596 mmHg 95%
    19:00 -3°C° 0.8 mm 2 mps 596 mmHg 95%
    20:00 -3°C° 1.5 mm 2 mps 597 mmHg 95%
    21:00 -3°C° 1.5 mm 2 mps 597 mmHg 94%
    22:00 -3°C° 1.5 mm 2 mps 597 mmHg 94%
    23:00 -3°C° 1.5 mm 2 mps 597 mmHg 95%

    23 January, Tuesday

    Time Temperature Precipitation Wind Pressure Humidity
    00:00 -2°C° 1.5 mm 2 mps 597 mmHg 95%
    01:00 -2°C° 1.5 mm 2 mps 597 mmHg 95%
    02:00 -3°C° 0.1 mm 2 mps 597 mmHg 95%
    03:00 -3°C° 0.1 mm 2 mps 597 mmHg 95%
    04:00 -4°C° 0.1 mm 2 mps 597 mmHg 95%
    05:00 -4°C° 0 mm 2 mps 597 mmHg 95%
    06:00 -4°C° 0 mm 2 mps 598 mmHg 95%
    07:00 -4°C° 0 mm 2 mps 598 mmHg 94%
    08:00 -4°C° 0 mm 2 mps 598 mmHg 95%
    09:00 -3°C° 0 mm 2 mps 599 mmHg 96%
    10:00 -3°C° 0 mm 2 mps 599 mmHg 97%
    11:00 -2°C° 0.1 mm 2 mps 599 mmHg 97%
    12:00 -2°C° 0.1 mm 2 mps 599 mmHg 98%
    13:00 -2°C° 0.1 mm 2 mps 600 mmHg 99%
    14:00 -2°C° 0 mm 2 mps 600 mmHg 98%
    15:00 -2°C° 0 mm 2 mps 600 mmHg 97%
    16:00 0°C° 0 mm 1 mps 600 mmHg 97%
    17:00 -1°C° 0 mm 1 mps 600 mmHg 95%
    18:00 -2°C° 0 mm 1 mps 599 mmHg 93%
    19:00 -3°C° 0 mm 1 mps 599 mmHg 91%
    20:00 -4°C° 0 mm 1 mps 599 mmHg 89%
    21:00 -4°C° 0 mm 1 mps 599 mmHg 87%
    22:00 -4°C° 0 mm 1 mps 599 mmHg 85%
    23:00 -4°C° 0 mm 1 mps 599 mmHg 83%
    Show more